Regional Weather Roundup
Issued by NWS Midland/Odessa, TX

Skip options and go directly to product.
Home | Oldest Version | Previous Version | Current Version | All | Text Only | Save Text | Print | Product List | Glossary Off

Skip product version selection by date and time.   

641
ASUS44 KMAF 012210
RWRMAF
MIDLAND AREA WEATHER ROUNDUP
NATIONAL WEATHER SERVICE MIDLAND TX
500 PM CDT TUE SEP 01 2015

...IN SOUTHWEST TEXAS AND SOUTHEAST NEW MEXICO...

CITY           SKY/WX    TMP DP  RH WIND       PRES   REMARKS
ALPINE         PTSUNNY   91  44  19 E10       30.12F
ANDREWS        FAIR      92  52  25 SE13      30.02F
ARTESIA        SUNNY     95  50  21 SE17      30.00F
BIG SPRING     MOSUNNY   90  51  26 SE5       30.02F
CARLSBAD       SUNNY     97  47  18 SE12G20   29.97F
DRYDEN           N/A     96  56  26 E8G21     29.95F
FORT STOCKTON  SUNNY     94  55  26 E15       29.99F
GUAD PASS      SUNNY     89  44  20 MISG      30.16F
HOBBS          SUNNY     91  50  24 SE9G17    30.04F
MARFA          MOSUNNY   91  45  19 NE15G25   30.11F
MIDLAND AIRPK  SUNNY     94  49  21 SE6G16    30.01F
MIDLAND INTL   SUNNY     94  52  24 S15G29    30.00F
ODESSA         NOT AVBL
PECOS          SUNNY     98  50  19 E13G21    29.95F
PRESIDIO       NOT AVBL
SEMINOLE       SUNNY     93  49  22 S10G17    30.03F
SNYDER         SUNNY     92  54  27 SE9G16    30.00F
WINK           SUNNY     96  51  21 SE15G23   29.97F
$$
...OTHER STATIONS IN TEXAS...

CITY           SKY/WX    TMP DP  RH WIND       PRES   REMARKS
ABILENE        SUNNY     93  56  28 SE10      29.99F
AMARILLO       SUNNY     90  55  30 S20G28    30.03F
AUSTIN         PTSUNNY   90  67  46 E6G21     29.95F
BROWNSVILLE    MOSUNNY   85  74  69 SE15      29.92F
CORPUS CHRISTI PTSUNNY   87  71  58 E18G28    29.95S
DALLAS FTW     MOSUNNY   94  62  34 S9        29.96F
DEL RIO        SUNNY     96  60  30 SE12      29.90F
EL PASO        MOSUNNY   96  40  14 SW6       30.00F
HOUSTON INT    CLOUDY    79  71  76 E8        30.03F
LUBBOCK        MOSUNNY   92  53  26 S14       30.03F
SAN ANGELO     PTSUNNY   93  55  27 E9        29.97F
SAN ANTONIO    PTSUNNY   92  64  39 E8        29.95F
WACO           LGT RAIN  93  68  43 SE22G29   29.96F
WICHITA FALLS  NOT AVBL
$$
...OTHER LOCATIONS IN NEW MEXICO...

CITY           SKY/WX    TMP DP  RH WIND       PRES   REMARKS
ALAMAGORDO     SUNNY     95  37  13 W7        30.02F
ALBUQUERQUE    PTSUNNY   85  44  23 W7        30.13F
CANNON AFB     SUNNY     92  52  25 S18G24    30.04F
CLOVIS         SUNNY     91  54  27 S17G24    30.07F
HOLLOMAN AFB   MOSUNNY   94  41  15 VRB2      30.00F
ROSWELL        SUNNY     97  48  18 SE15G24   29.99F
RUIDOSO        MOSUNNY   79  46  31 MISG      30.26S
SANTA FE       PTSUNNY   84  43  23 N12       30.19F
TRUTH OR CONSE PTSUNNY   89  45  21 N8        30.07F
TUCUMCARI      SUNNY     96  47  18 SW14      29.99F
$$

USA.gov is the U.S. government's official web portal to all federal, state and local government web resources and services.